Time,TemperatureF,DewpointF,PressureIn,WindDirection,WindDirectionDegrees,WindSpeedMPH,WindSpeedGustMPH,Humidity,HourlyPrecipIn,Conditions,Clouds,dailyrainin,SoftwareType,DateUTC
2016-07-23 00:00:00,65.6,58.2,30.08,WSW,245,0.0,4.0,77,0.00,,,0.07,Wunderground v.1.15,2016-07-23 06:00:00,
2016-07-23 00:10:00,65.6,58.2,30.08,WSW,246,2.0,2.0,77,0.00,,,0.00,Wunderground v.1.15,2016-07-23 06:10:00,
2016-07-23 00:15:00,66.2,57.3,30.08,WSW,246,2.0,4.0,73,0.00,,,0.00,Wunderground v.1.15,2016-07-23 06:15:00,
2016-07-23 00:20:00,66.5,56.4,30.08,WSW,246,2.0,4.0,70,0.00,,,0.00,Wunderground v.1.15,2016-07-23 06:20:00,
2016-07-23 00:30:00,69.5,53.6,30.07,West,264,3.0,5.0,57,0.00,,,0.00,Wunderground v.1.15,2016-07-23 06:30:00,
2016-07-23 00:35:00,72.1,51.9,30.07,SSW,213,4.0,5.0,49,0.00,,,0.00,Wunderground v.1.15,2016-07-23 06:35:00,
2016-07-23 00:40:00,73.9,51.8,30.07,SW,227,5.0,5.0,46,0.00,,,0.00,Wunderground v.1.15,2016-07-23 06:40:00,
2016-07-23 00:45:00,74.8,50.8,30.07,SW,227,5.0,5.0,43,0.00,,,0.00,Wunderground v.1.15,2016-07-23 06:45:00,
2016-07-23 00:50:00,75.4,50.7,30.07,SSW,205,5.0,5.0,42,0.00,,,0.00,Wunderground v.1.15,2016-07-23 06:50:00,
2016-07-23 00:55:00,75.3,50.6,30.07,WSW,250,5.0,5.0,42,0.00,,,0.00,Wunderground v.1.15,2016-07-23 06:55:00,
2016-07-23 01:00:00,75.0,49.7,30.07,SW,232,3.0,3.0,41,0.00,,,0.00,Wunderground v.1.15,2016-07-23 07:00:00,
2016-07-23 01:05:00,74.6,48.7,30.07,ESE,109,1.0,4.0,40,0.00,,,0.00,Wunderground v.1.15,2016-07-23 07:05:00,
2016-07-23 01:10:00,73.3,53.5,30.07,North,355,1.0,4.0,50,0.00,,,0.00,Wunderground v.1.15,2016-07-23 07:10:00,
2016-07-23 01:20:00,72.3,54.2,30.08,East,84,6.0,8.0,53,0.00,,,0.00,Wunderground v.1.15,2016-07-23 07:20:00,
2016-07-23 01:25:00,71.0,55.0,30.09,NNE,31,6.0,8.0,57,0.00,,,0.00,Wunderground v.1.15,2016-07-23 07:25:00,
2016-07-23 01:30:00,70.1,55.1,30.09,ESE,109,4.0,6.0,59,0.00,,,0.00,Wunderground v.1.15,2016-07-23 07:30:00,
2016-07-23 01:35:00,69.3,55.7,30.09,North,355,4.0,6.0,62,0.00,,,0.00,Wunderground v.1.15,2016-07-23 07:35:00,
2016-07-23 01:45:00,67.6,55.8,30.09,NNW,337,2.0,4.0,66,0.00,,,0.00,Wunderground v.1.15,2016-07-23 07:45:00,
2016-07-23 01:55:00,66.6,55.7,30.09,NNW,329,1.0,5.0,68,0.00,,,0.00,Wunderground v.1.15,2016-07-23 07:55:00,
2016-07-23 02:00:00,66.8,55.9,30.09,NW,316,3.0,6.0,68,0.00,,,0.00,Wunderground v.1.15,2016-07-23 08:00:00,
2016-07-23 02:05:00,67.2,55.5,30.09,NW,323,5.0,6.0,66,0.00,,,0.00,Wunderground v.1.15,2016-07-23 08:05:00,
2016-07-23 02:10:00,67.6,55.8,30.09,NNW,346,4.0,4.0,66,0.00,,,0.00,Wunderground v.1.15,2016-07-23 08:10:00,
2016-07-23 02:15:00,67.6,55.8,30.09,WNW,300,4.0,4.0,66,0.00,,,0.00,Wunderground v.1.15,2016-07-23 08:15:00,
2016-07-23 02:25:00,66.2,55.3,30.09,WNW,302,2.0,4.0,68,0.00,,,0.00,Wunderground v.1.15,2016-07-23 08:25:00,
2016-07-23 02:30:00,65.9,55.0,30.09,WNW,302,1.0,1.0,68,0.00,,,0.00,Wunderground v.1.15,2016-07-23 08:30:00,
2016-07-23 02:35:00,65.4,55.4,30.09,WNW,298,1.0,4.0,70,0.00,,,0.00,Wunderground v.1.15,2016-07-23 08:35:00,
2016-07-23 02:40:00,64.5,55.3,30.09,West,279,3.0,3.0,72,0.00,,,0.00,Wunderground v.1.15,2016-07-23 08:40:00,
2016-07-23 02:45:00,64.4,54.8,30.09,WNW,286,3.0,4.0,71,0.00,,,0.00,Wunderground v.1.15,2016-07-23 08:45:00,
2016-07-23 02:50:00,64.5,56.0,30.08,North,360,2.0,2.0,74,0.00,,,0.00,Wunderground v.1.15,2016-07-23 08:50:00,
2016-07-23 02:55:00,64.2,55.7,30.09,North,360,1.0,4.0,74,0.00,,,0.00,Wunderground v.1.15,2016-07-23 08:55:00,
2016-07-23 03:00:00,64.1,55.6,30.09,North,355,0.0,4.0,74,0.00,,,0.00,Wunderground v.1.15,2016-07-23 09:00:00,
2016-07-23 03:10:00,63.2,55.5,30.08,WNW,293,1.0,4.0,76,0.00,,,0.00,Wunderground v.1.15,2016-07-23 09:10:00,
2016-07-23 03:15:00,62.8,55.5,30.08,WSW,249,1.0,4.0,77,0.00,,,0.00,Wunderground v.1.15,2016-07-23 09:15:00,
2016-07-23 03:20:00,62.8,55.8,30.08,WSW,249,2.0,2.0,78,0.00,,,0.00,Wunderground v.1.15,2016-07-23 09:20:00,
2016-07-23 03:25:00,62.7,55.7,30.08,WSW,249,1.0,4.0,78,0.00,,,0.00,Wunderground v.1.15,2016-07-23 09:25:00,
2016-07-23 03:30:00,63.0,55.7,30.08,WSW,249,1.0,1.0,77,0.00,,,0.00,Wunderground v.1.15,2016-07-23 09:30:00,
2016-07-23 03:35:00,62.5,55.2,30.08,WSW,248,1.0,4.0,77,0.00,,,0.00,Wunderground v.1.15,2016-07-23 09:35:00,
2016-07-23 03:40:00,61.8,55.6,30.08,WSW,248,2.0,2.0,80,0.00,,,0.00,Wunderground v.1.15,2016-07-23 09:40:00,
2016-07-23 03:45:00,61.7,55.5,30.08,WSW,250,2.0,4.0,80,0.00,,,0.00,Wunderground v.1.15,2016-07-23 09:45:00,
2016-07-23 03:55:00,61.2,55.7,30.08,WSW,250,0.0,4.0,82,0.00,,,0.00,Wunderground v.1.15,2016-07-23 09:55:00,
2016-07-23 04:00:00,61.0,55.5,30.08,WSW,250,0.0,4.0,82,0.00,,,0.00,Wunderground v.1.15,2016-07-23 10:00:00,
2016-07-23 04:05:00,60.7,55.5,30.07,WSW,250,1.0,4.0,83,0.00,,,0.00,Wunderground v.1.15,2016-07-23 10:05:00,
2016-07-23 04:10:00,60.1,54.9,30.07,WSW,250,1.0,4.0,83,0.00,,,0.00,Wunderground v.1.15,2016-07-23 10:10:00,
2016-07-23 04:15:00,59.8,55.0,30.07,WSW,250,1.0,4.0,84,0.00,,,0.00,Wunderground v.1.15,2016-07-23 10:15:00,
2016-07-23 04:20:00,59.9,55.4,30.07,WSW,250,1.0,1.0,85,0.00,,,0.00,Wunderground v.1.15,2016-07-23 10:20:00,
2016-07-23 04:25:00,59.9,55.1,30.07,WSW,250,1.0,2.0,84,0.00,,,0.00,Wunderground v.1.15,2016-07-23 10:25:00,
2016-07-23 04:30:00,59.7,54.9,30.07,WSW,250,1.0,4.0,84,0.00,,,0.00,Wunderground v.1.15,2016-07-23 10:30:00,
2016-07-23 04:40:00,59.3,54.8,30.07,WSW,250,2.0,4.0,85,0.00,,,0.00,Wunderground v.1.15,2016-07-23 10:40:00,
2016-07-23 04:45:00,59.1,54.9,30.07,WSW,250,3.0,4.0,86,0.00,,,0.00,Wunderground v.1.15,2016-07-23 10:45:00,
2016-07-23 04:50:00,59.2,55.0,30.07,WSW,250,2.0,2.0,86,0.00,,,0.00,Wunderground v.1.15,2016-07-23 10:50:00,
2016-07-23 04:55:00,59.3,54.8,30.07,WSW,250,1.0,4.0,85,0.00,,,0.00,Wunderground v.1.15,2016-07-23 10:55:00,
2016-07-23 05:05:00,59.1,54.6,30.06,WSW,250,0.0,4.0,85,0.00,,,0.00,Wunderground v.1.15,2016-07-23 11:05:00,
2016-07-23 05:10:00,58.8,54.0,30.07,WSW,250,1.0,4.0,84,0.00,,,0.00,Wunderground v.1.15,2016-07-23 11:10:00,
2016-07-23 05:20:00,58.2,53.7,30.07,WSW,250,1.0,1.0,85,0.00,,,0.00,Wunderground v.1.15,2016-07-23 11:20:00,
2016-07-23 05:25:00,58.2,54.0,30.07,WSW,250,1.0,4.0,86,0.00,,,0.00,Wunderground v.1.15,2016-07-23 11:25:00,
2016-07-23 05:30:00,58.1,53.6,30.07,WSW,250,1.0,1.0,85,0.00,,,0.00,Wunderground v.1.15,2016-07-23 11:30:00,
2016-07-23 05:35:00,57.9,53.7,30.07,WSW,250,1.0,2.0,86,0.00,,,0.00,Wunderground v.1.15,2016-07-23 11:35:00,
2016-07-23 05:40:00,57.9,53.4,30.07,WSW,250,1.0,4.0,85,0.00,,,0.00,Wunderground v.1.15,2016-07-23 11:40:00,
2016-07-23 05:45:00,57.6,53.4,30.07,WSW,250,1.0,4.0,86,0.00,,,0.00,Wunderground v.1.15,2016-07-23 11:45:00,
2016-07-23 05:50:00,57.4,53.2,30.07,WSW,250,2.0,2.0,86,0.00,,,0.00,Wunderground v.1.15,2016-07-23 11:50:00,
2016-07-23 05:55:00,57.5,53.3,30.07,WSW,250,1.0,4.0,86,0.00,,,0.00,Wunderground v.1.15,2016-07-23 11:55:00,
2016-07-23 06:00:00,57.4,53.2,30.07,WSW,250,1.0,4.0,86,0.00,,,0.00,Wunderground v.1.15,2016-07-23 12:00:00,
2016-07-23 06:05:00,57.7,53.5,30.07,WSW,250,2.0,4.0,86,0.00,,,0.00,Wunderground v.1.15,2016-07-23 12:05:00,
2016-07-23 06:10:00,57.6,53.8,30.07,WSW,250,1.0,1.0,87,0.00,,,0.00,Wunderground v.1.15,2016-07-23 12:10:00,
2016-07-23 06:20:00,57.9,54.4,30.07,WSW,250,0.0,4.0,88,0.00,,,0.00,Wunderground v.1.15,2016-07-23 12:20:00,
2016-07-23 06:25:00,58.3,54.8,30.07,WSW,250,0.0,4.0,88,0.00,,,0.00,Wunderground v.1.15,2016-07-23 12:25:00,
2016-07-23 06:30:00,58.6,54.7,30.08,WSW,250,1.0,4.0,87,0.00,,,0.00,Wunderground v.1.15,2016-07-23 12:30:00,
2016-07-23 06:35:00,59.1,55.2,30.07,WSW,250,1.0,4.0,87,0.00,,,0.00,Wunderground v.1.15,2016-07-23 12:35:00,
2016-07-23 06:45:00,60.8,56.9,30.07,WSW,250,1.0,2.0,87,0.00,,,0.00,Wunderground v.1.15,2016-07-23 12:45:00,
2016-07-23 06:50:00,61.3,57.1,30.08,WSW,250,1.0,1.0,86,0.00,,,0.00,Wunderground v.1.15,2016-07-23 12:50:00,
2016-07-23 06:55:00,62.0,57.4,30.08,WSW,250,1.0,4.0,85,0.00,,,0.00,Wunderground v.1.15,2016-07-23 12:55:00,
2016-07-23 07:00:00,63.0,57.4,30.08,WSW,250,0.0,4.0,82,0.00,,,0.00,Wunderground v.1.15,2016-07-23 13:00:00,
2016-07-23 07:05:00,64.1,58.8,30.08,WSW,250,0.0,4.0,83,0.00,,,0.00,Wunderground v.1.15,2016-07-23 13:05:00,
2016-07-23 07:10:00,65.8,60.2,30.08,WSW,250,0.0,4.0,82,0.00,,,0.00,Wunderground v.1.15,2016-07-23 13:10:00,
2016-07-23 07:15:00,67.4,60.3,30.08,WSW,250,1.0,4.0,78,0.00,,,0.00,Wunderground v.1.15,2016-07-23 13:15:00,
2016-07-23 07:20:00,68.9,58.7,30.08,WSW,250,0.0,4.0,70,0.00,,,0.00,Wunderground v.1.15,2016-07-23 13:20:00,
2016-07-23 07:25:00,69.7,57.4,30.08,SW,216,0.0,4.0,65,0.00,,,0.00,Wunderground v.1.15,2016-07-23 13:25:00,
2016-07-23 07:30:00,70.8,57.6,30.08,SW,216,0.0,4.0,63,0.00,,,0.00,Wunderground v.1.15,2016-07-23 13:30:00,
2016-07-23 07:35:00,71.0,59.1,30.08,SW,217,0.0,4.0,66,0.00,,,0.00,Wunderground v.1.15,2016-07-23 13:35:00,
2016-07-23 07:45:00,71.7,58.4,30.08,SW,217,0.0,4.0,63,0.00,,,0.00,Wunderground v.1.15,2016-07-23 13:45:00,
2016-07-23 07:50:00,72.1,58.8,30.08,SW,217,0.0,4.0,63,0.00,,,0.00,Wunderground v.1.15,2016-07-23 13:50:00,
2016-07-23 07:55:00,73.1,59.3,30.08,SW,217,1.0,4.0,62,0.00,,,0.00,Wunderground v.1.15,2016-07-23 13:55:00,
2016-07-23 08:05:00,74.1,58.9,30.08,WSW,253,2.0,4.0,59,0.00,,,0.00,Wunderground v.1.15,2016-07-23 14:05:00,
2016-07-23 08:10:00,74.7,58.9,30.08,WSW,250,2.0,4.0,58,0.00,,,0.00,Wunderground v.1.15,2016-07-23 14:10:00,
2016-07-23 08:15:00,75.3,60.0,30.08,WSW,250,2.0,4.0,59,0.00,,,0.00,Wunderground v.1.15,2016-07-23 14:15:00,
2016-07-23 08:20:00,76.1,58.8,30.08,WSW,250,1.0,1.0,55,0.00,,,0.00,Wunderground v.1.15,2016-07-23 14:20:00,